Погода в Апсуа

Россия / Карачаево-Черкесская Республика     44°26′58″N   41°47′44″E
темп.,
°C
ветер,
м/с
пор.,
м/с
влажн.,
%
обл.,
%
осадки,
мм/ч
давл.,
гПа
погр.,
м
26 мая, чт
чт2600:00+8юз22875 0.0 102216
03:00+7ююз2287100 0.0 102216
06:00+9ююз238479 0.0 102288
09:00+14зюз22634 0.0 1021723
12:00+18зсз234716 0.0 10202075
15:00+19сз334624 0.0 10191959
18:00+17с3464100 0.0 1018218
21:00+11с117423 0.0 102010
27 мая, пт
пт2700:00+12зюз116894 0.0 101910
03:00+10юз228110 0.0 101912
06:00+11юз127971 0.0 102071
09:00+16зюз23645 0.0 1020557
12:00+19сз55470 0.0 10191405
15:00+19зсз56490 0.0 10191345
18:00+18сз33690 0.0 1019848
21:00+13з11845 0.0 102011
28 мая, сб
сб2800:00+11ююз228725 0.0 101915
03:00+11ю22894 0.0 101816
06:00+12ююв23860 0.0 101896
09:00+18в35650 0.0 1016772
12:00+22в44572 0.0 10151287
15:00+24в43533 0.0 10141672
18:00+21в47680 0.0 1014417
21:00+16вюв33820 0.0 101524
29 мая, вс
вс2900:00+14юв22880 0.0 101422
03:00+13ююв32920 0.0 101431
06:00+14ю23850 0.0 101485
09:00+22з12640 0.0 1014500
12:00+25ссз33530 0.0 10141039
15:00+26ссв33490 0.0 10141584
18:00+24св35652 0.0 1015196
21:00+18вюв22651 0.0 101611
30 мая, пн
пн3000:00+15ююв33774 0.0 101632
03:00+14юв33865 0.0 101625
06:00+16юв24840 0.0 101691
09:00+23вюв47580 0.0 1015643
12:00+26в67460 0.0 10141182
15:00+27в67490 0.0 10121384
18:00+25в59670 0.0 1012494
21:00+19в228228 0.0 101322